Regional Weather Roundup
Issued by NWS San Angelo, TX

Home | Current Version | Previous Version | Text Only | Print | Product List | Glossary On
Versions: 1 2 3 4 5 6 7 8 9 10 11 12 13 14 15 16 17 18 19 20 21 22 23 24 25 26 27 28 29 30 31 32 33 34 35 36 37 38 39 40 41 42 43 44 45 46 47 48 49 50
000
ASUS44 KSJT 251010
RWRSJT
WEST CENTRAL TEXAS REGIONAL WEATHER ROUNDUP
NATIONAL WEATHER SERVICE SAN ANGELO TX
400 AM CST SUN JAN 25 2015

NOTE: "FAIR" INDICATES FEW OR NO CLOUDS BELOW 12,000 FEET WITH NO
SIGNIFICANT WEATHER AND/OR OBSTRUCTIONS TO VISIBILITY.

TXZ049-054-064>066-071>073-076>078-098-099-113-114-127-128-139-140-
154-155-168>170-251100
...LOCATIONS ACROSS WEST CENTRAL TEXAS...

CITY           SKY/WX    TMP DP  RH WIND       PRES   REMARKS
SAN ANGELO     CLEAR     37  33  85 NW5       30.07R WCI  33
ABILENE        CLEAR     45  32  60 NW16      30.04R WCI  38
DYESS AFB      CLEAR     44  32  62 NW10      30.03R WCI  39
JUNCTION       CLEAR     33  31  92 W3        30.07F
SWEETWATER     CLEAR     42  31  66 W6        30.09R WCI  38
BROWNWOOD      CLEAR     37  34  87 CALM      30.02S
COLEMAN        SUNNY     47  36  64 W12       30.03R
SONORA         PTCLDY    34  32  93 CALM      30.12F
OZONA          FAIR      32  30  93 CALM      30.11S
BRADY          CLEAR     39  34  81 SW5       30.02F WCI  36
$$

TEXAS PANHANDLE/OKLAHOMA PANHANDLE

CITY           SKY/WX    TMP DP  RH WIND       PRES   REMARKS
AMARILLO       CLEAR     35  28  75 NW10      30.14R WCI  27
BORGER         CLEAR     41  29  62 W12       30.13R WCI  34
CANADIAN       PTCLDY    45  33  63 NW12G17   30.06R WCI  39
DALHART        PTCLDY    31  23  72 NW5       30.17R WCI  26
DUMAS          SUNNY     36  27  69 NW10      30.15R WCI  28
GUYMON         NOT AVBL
HEREFORD       MOSUNNY   31  26  83 N6        30.16R WCI  25
PAMPA          SUNNY     37  29  74 W12       30.11R WCI  29
PERRYTON         N/A     39  28  64 NW16      30.04R WCI  31
$$

SOUTHERN PANHANDLE/SOUTH PLAINS/ROLLING PLAINS

CITY           SKY/WX    TMP DP  RH WIND       PRES   REMARKS
LUBBOCK        CLEAR     34  28  79 N9        30.09R WCI  27
SNYDER         CLEAR    N/A N/A N/A NW7       30.07S
CHILDRESS      CLEAR     42  31  64 NW13      30.06R WCI  35
SEMINOLE       SUNNY     35  28  75 CALM      30.12R
$$

PERMIAN BASIN

CITY           SKY/WX    TMP DP  RH WIND       PRES   REMARKS
MIDLAND        CLEAR     37  28  70 W8        30.10R WCI  31
ODESSA         CLEAR     36  25  64 NW9       30.11R WCI  29
WINK           CLEAR     33  25  72 N9        30.11R WCI  25
$$

FAR WEST/SOUTHWEST MOUNTAINS/TRANS PECOS

CITY           SKY/WX    TMP DP  RH WIND       PRES   REMARKS
ALPINE         PTSUNNY   46  17  31 SW12      30.20S
DRYDEN           N/A     47  27  45 W15       30.07F
EL PASO        MOCLDY    33  26  75 CALM      30.21R
FORT STOCKTON  MOCLDY    41  26  55 SW10      30.11S WCI  35
GUADALUPE PASS NOT AVBL
MARFA          MOCLDY    28  23  80 NE3       30.19R
PECOS          MOSUNNY   40  26  55 NW6       30.14R WCI  36
$$

DALLAS/FORT WORTH METROPLEX

CITY           SKY/WX    TMP DP  RH WIND       PRES   REMARKS
DFW AIRPORT    PTCLDY    44  35  70 SW10      29.93S WCI  39
FTW MEACHAM    CLEAR     47  36  65 W8        29.95S
DAL-EXECUTIVE  CLEAR     50  36  58 SW9       29.93S
GRAND PRAIRIE  PTCLDY    40  36  85 S5        29.97S WCI  36
ADDISON        CLEAR     44  36  71 SW3       29.95F
MESQUITE       SUNNY     38  34  85 S8        29.95S WCI  32
LANCASTER      SUNNY     43  34  70 SW3       29.96S
$$

NORTH CENTRAL TEXAS

CITY           SKY/WX    TMP DP  RH WIND       PRES   REMARKS
SHRMAN/DENISON SUNNY     41  38  87 SW8       29.92F WCI  36
GAINESVILLE    CLEAR     41  34  77 W7        29.94F WCI  36
BRIDGEPORT     SUNNY     47  37  67 W9        29.98R
DENTON         CLEAR     38  34  85 W6        29.94S WCI  33
WAXAHACHIE     SUNNY     45  38  77 SW9       29.97S WCI  40
GRANBURY       SUNNY     36  33  91 W3        29.99S
$$

WESTERN NORTH TEXAS

CITY           SKY/WX    TMP DP  RH WIND       PRES   REMARKS
WICHITA FALLS  CLEAR     41  32  70 W10       29.97R WCI  35
VERNON         PTSUNNY   42  30  63 NW8       30.01S WCI  37
BRECKENRIDGE   SUNNY     44  34  68 W6        30.01R
COMANCHE       CLEAR     48  36  62 W13       30.00S
$$

CENTRAL AND SOUTH CENTRAL TEXAS

CITY           SKY/WX    TMP DP  RH WIND       PRES   REMARKS
AUSTIN/BERGSTM PTCLDY    39  35  86 SW5       30.03F WCI  36
WACO           CLEAR     37  35  92 SW8       29.98F WCI  31
HILLSBORO      SUNNY     39  33  80 S3        29.97F
TEMPLE         CLEAR     37  30  75 CALM      30.00F
KILLEEN-GRAY   CLEAR     50  35  57 W10       30.01S
FORT HOOD      CLEAR     45  36  70 MISG      30.01S
GEORGETOWN     CLEAR     41  36  81 W6        30.02F WCI  37
LAGO VISTA     FAIR      45  37  73 W7        30.03S
SAN MARCOS     CLEAR     41  36  81 W3        30.04F
NEW BRAUNFELS  CLEAR     42  38  85 SW3       30.05F
RANDOLPH AFB   PTCLDY    43  37  78 SW5       30.06F
SAN ANTONIO    PTCLDY    43  38  82 NW3       30.07S
STINSON        MOCLDY    45  38  76 W3        30.06S
PLEASANTON     NOT AVBL
LA GRANGE      CLEAR     43  36  75 CALM      30.02F
GIDDINGS       NOT AVBL
$$

EAST TEXAS

CITY           SKY/WX    TMP DP  RH WIND       PRES   REMARKS
PARIS          CLEAR     39  34  81 SW7       29.90F WCI  34
CLARKSVILLE    NOT AVBL
TYLER          CLEAR     46  36  68 SW12      29.94F
LONGVIEW       CLEAR     40  34  79 S8        29.94F WCI  34
PALESTINE      SUNNY     34  34  99 SE5       29.99F WCI  30
NACOGDOCHES    CLEAR     41  32  70 CALM      29.99F
$$

TEXAS HILL COUNTRY AND EDWARDS PLATEAU

CITY           SKY/WX    TMP DP  RH WIND       PRES   REMARKS
LLANO          SUNNY     39  34  81 SW6       30.09S WCI  35
HORSESHOE BAY  FAIR      45  34  65 SW3       30.04F
KERRVILLE      CLEAR     33  32  94 NW6       30.08S WCI  28
FREDERICKSBRG  CLEAR     41  33  72 CALM      30.05F
ROCKSPRINGS    NOT AVBL
HONDO          MOCLDY    43  38  82 NW3       30.10S
UVALDE         PTSUNNY   43  37  81 CALM      30.10S
DEL RIO        MOCLDY    43  36  76 CALM      30.10S
$$

SOUTHEAST TEXAS

CITY           SKY/WX    TMP DP  RH WIND       PRES   REMARKS
COLLEGE STN    CLEAR     42  34  73 SW5       30.02F WCI  39
CALDWELL       SUNNY     41  36  81 S7        30.05F WCI  36
CROCKETT       SUNNY     39  37  93 CALM      30.03F
BRENHAM        CLEAR     46  36  66 CALM      30.04F
HUNTSVILLE     CLEAR     45  35  68 SW7       30.01F
CONROE         CLEAR     34  32  92 CALM      30.04F
HOUSTON BUSH   PTCLDY    42  38  85 SW3       30.04S
HOUSTON HOBBY  PTCLDY    42  41  96 CALM      30.05F
PERLAND        CLEAR     45  42  89 MISG      30.06F
WHARTON        MOSUNNY   44  42  92 SW7       30.07S WCI  40
$$

THE UPPER TEXAS COAST

CITY           SKY/WX    TMP DP  RH WIND       PRES   REMARKS
ORANGE         SUNNY     45  43  92 SW3       30.06S
PORT ARTHUR    CLEAR     41  40  96 SW6       30.04S FOG     WCI  37
GALVESTON      CLEAR     46  44  93 SW7       30.07F
ANGLETON         N/A     44  43  96 SW3       30.06F
BAY CITY       MOSUNNY   45  45  99 SW8       30.06F
$$

TEXAS COASTAL BEND, RIO GRANDE PLAINS DEEP SOUTH TEXAS

CITY           SKY/WX    TMP DP  RH WIND       PRES   REMARKS
VICTORIA       MOCLDY    46  37  71 SW5       30.08S
BEEVILLE       FAIR      46  38  72 CALM      30.08F
ROCKPORT       CLOUDY    50  38  63 SW7       30.09F
PORT ARANSAS   CLOUDY    49  42  78 SW3       30.10F
PORT LAVACA    CLOUDY    46  42  85 SW7       30.08F
CORPUS CHRISTI CLOUDY    43  38  82 S6        30.11S WCI  39
KINGSVILLE NAS MOCLDY    40  37  89 SW6       30.11F WCI  36
COTULLA        CLOUDY    47  37  68 N5        30.09F
LAREDO         NOT AVBL
BROWNSVILLE    PTCLDY    47  44  90 S3        30.13F
PORT ISABEL    PTCLDY    45  43  93 SW5       30.12F
HEBBRONVILLE   PTSUNNY   45  34  67 SW6       30.11S
MCALLEN        CLOUDY    47  40  76 CALM      30.13F
WESLACO        MOCLDY    46  39  75 S3        30.13F
FALFURRIAS     MOSUNNY   41  33  73 CALM      30.11F
EDINBURG       CLOUDY    47  40  77 CALM      30.12F
$$


USA.gov is the U.S. government's official web portal to all federal, state and local government web resources and services.